This is the latest recevied weather packets stored in our database for station/object N7JP. If no packets are shown the sender has not sent any weather packets the latest 10 day(s).
| Time | Temp. | Humidity | Pressure | Rain* | Wind** | Luminosity | Snow |
|---|---|---|---|---|---|---|---|
| 1777437240 | 7.22° C | 90% | 1019.1 hPa | 0 mm | - | - | - |
| 1777436339 | 7.78° C | 90% | 1019 hPa | 0 mm | - | - | - |
| 1777435438 | 8.33° C | 89% | 1018.9 hPa | 0 mm | - | - | - |
| 1777434537 | 8.89° C | 87% | 1018.7 hPa | 0 mm | - | - | - |
| 1777433634 | 9.44° C | 85% | 1018.5 hPa | 0 mm | - | - | - |
| 1777432736 | 10° C | 83% | 1018.4 hPa | 0 mm | - | - | - |
| 1777431834 | 10.56° C | 81% | 1018.4 hPa | 0 mm | - | - | - |
| 1777430930 | 11.11° C | 80% | 1018.3 hPa | 0 mm | - | - | - |
| 1777430028 | 11.11° C | 80% | 1018.4 hPa | 0 mm | - | - | - |
| 1777429128 | 11.11° C | 80% | 1018.3 hPa | 0 mm | - | - | - |
| 1777428218 | 11.11° C | 81% | 1018.4 hPa | 0 mm | - | - | - |
| 1777427319 | 11.11° C | 80% | 1018.4 hPa | 0 mm | - | - | - |
| 1777426420 | 11.11° C | 80% | 1018.5 hPa | 0 mm | - | - | - |
| 1777425493 | 11.67° C | 80% | 1018.6 hPa | 0 mm | - | - | - |
| 1777424574 | 11.67° C | 80% | 1018.5 hPa | 0 mm | - | - | - |
| 1777423646 | 11.67° C | 80% | 1018.4 hPa | 0 mm | - | - | - |
| 1777422742 | 12.22° C | 82% | 1018.3 hPa | 0 mm | - | - | - |
| 1777421842 | 11.67° C | 84% | 1018.2 hPa | 0 mm | - | - | - |
| 1777420933 | 12.22° C | 82% | 1018.2 hPa | 0 mm | - | - | - |
| 1777420022 | 12.22° C | 81% | 1018.2 hPa | 0 mm | - | - | - |
| 1777419123 | 12.22° C | 81% | 1018.1 hPa | 0 mm | - | - | - |
| 1777418224 | 12.78° C | 80% | 1018.1 hPa | 0 mm | - | - | - |
| 1777417304 | 12.78° C | 81% | 1018 hPa | 0 mm | - | - | - |
| 1777416410 | 12.78° C | 82% | 1018 hPa | 0 mm | - | - | - |
| 1777415502 | 12.22° C | 82% | 1018 hPa | 0 mm | - | - | - |
* Rain latest hour (hover to see other rain measurements)
** Current wind speed in m/s (hover to see current wind gust speed)